Location: Redwood Loop Observatory
(43.9900°N, 124.0900°W)
Time: 08:56:13
(UTC-07:00)

N. Korean satellite - Visible Passes

Search period start: 22 October 2019 00:00
Search period end: 01 November 2019 00:00
Orbit: 455 x 508 km, 97.2° (Epoch: 21 October)

Date Brightness Start Highest point End Pass type
(mag) Time Alt. Az. Time Alt. Az. Time Alt. Az.
22 Oct 9.7 06:24:44 10° NE 06:27:29 20° E 06:30:14 10° SE visible
23 Oct 10.6 06:01:38 10° E 06:01:58 10° E 06:02:18 10° E visible
24 Oct 7.1 07:06:46 10° NNE 07:10:25 68° ESE 07:14:04 10° S visible
24 Oct 9.9 19:18:08 10° SW 19:20:27 17° W 19:22:46 10° NW visible
25 Oct 8.7 06:41:42 10° NNE 06:45:03 32° E 06:48:22 10° SSE visible
25 Oct 8.5 18:51:49 10° SSW 18:54:58 34° W 18:58:11 10° NNW visible
26 Oct 10.0 06:17:10 10° NE 06:19:35 17° E 06:21:59 10° SE visible
27 Oct 10.5 19:37:26 10° W 19:38:01 10° W 19:38:36 10° W visible
28 Oct 7.6 06:58:54 10° NNE 07:02:31 53° E 07:06:09 10° S visible
28 Oct 9.5 19:09:48 10° SW 19:12:28 21° W 19:15:11 10° NW visible
29 Oct 9.1 06:33:58 10° NE 06:37:07 26° E 06:40:17 10° SSE visible
29 Oct 8.0 18:43:42 10° S 18:47:00 43° W 18:50:24 10° NNW visible
30 Oct 10.2 06:09:40 10° ENE 06:11:37 14° E 06:13:34 10° ESE visible
31 Oct 6.7 07:16:13 10° NNE 07:19:57 89° WNW 07:23:40 10° SSW visible
31 Oct 10.1 19:28:17 10° WSW 19:29:59 13° W 19:31:43 10° WNW visible
